Location: Bletchingley
(51.2333°N, 0.1000°W)
Time: 19:49:58
(UTC+00:00)

Daily predictions for brighter satellites

Satellite Brightness Start Highest point End
(mag) Time Altitude Azimuth Time Altitude Azimuth Time Altitude Azimuth
Meteor 1-21 4.4 18:41:54 10° N 18:47:27 56° ENE 18:52:59 10° SSE
COSMO-SKYMED 1 3.5 18:45:16 10° N 18:49:32 55° WNW 18:53:46 10° SSW
USA 229 DEB 4.2 18:44:33 10° WSW 18:50:52 62° NW 18:57:49 10° NE
USA 229 4.2 18:44:38 10° WSW 18:50:57 62° NW 18:57:55 10° NE
Cosmos 1707 2.6 18:48:55 10° N 18:52:45 75° E 18:56:31 10° SSE
Cosmos 2322 3.7 18:47:48 10° NNW 18:53:31 87° ENE 18:59:11 10° SSE
Okean 1-7 3.0 18:49:48 10° N 18:54:12 70° ENE 18:58:32 10° SSE
Cosmos 1954 Rocket 4.1 18:49:29 10° NNW 18:54:45 87° WSW 19:00:01 10° SSE
CZ-4B R/B 3.3 18:49:07 10° SSE 18:54:48 88° ENE 19:00:28 10° NNW
Cosmos 1727 Rocket 4.0 18:49:51 10° S 18:56:09 80° E 19:02:27 10° NNE
Cosmos 1674 2.6 18:53:25 10° N 18:57:09 67° E 19:00:50 10° SSE
Cosmos 1980 4.3 18:53:21 10° NNW 18:58:42 40° NE 19:04:01 10° ESE
Cosmos 2219 Rocket 2.6 18:54:27 10° NNW 19:00:08 70° WSW 19:05:47 10° SSE
Cosmos 2333 Rocket 3.3 18:56:31 10° NW 19:02:03 48° WSW 19:07:33 10° S
Cosmos 1933 Rocket 3.6 18:59:01 10° S 19:03:14 55° E 19:07:30 10° NNE
Cosmos 1975 3.1 18:59:36 10° SSE 19:03:20 42° E 19:07:07 10° NNE
SJ-6B 2.9 19:00:21 10° SSE 19:04:10 52° ENE 19:07:55 10° N
CZ-4C R/B 4.0 19:00:47 10° N 19:04:29 57° WNW 19:08:20 10° SSW
Meteor 2-9 Rocket 4.1 19:01:52 10° S 19:07:22 86° ESE 19:12:46 10° NNE
Cosmos 1726 3.2 19:05:42 10° SE 19:08:27 22° E 19:11:14 10° NE
CSL-04 Debris 4.3 19:04:29 10° SE 19:09:46 58° ENE 19:15:08 10° N
BREEZE-M DEB (TANK) 4.2 19:06:37 10° W 19:10:44 22° SW 19:12:57 10° S
Cosmos 2061 Rocket 4.3 19:04:50 10° N 19:11:08 51° ENE 19:17:21 10° SSE
USA 267 4.3 19:05:28 10° SSE 19:11:37 42° SW 19:17:49 10° WNW
Cosmos 1869 Rocket 4.0 19:08:57 10° SSE 19:12:55 37° E 19:16:55 10° NNE
COSMOS 2428 2.8 19:07:30 10° NNW 19:13:16 87° WSW 19:19:01 10° SSE
SL-14 R/B 3.8 19:12:03 10° N 19:15:39 36° ENE 19:19:12 10° SE
Cosmos 1459 Rocket 4.0 19:12:20 10° N 19:18:26 88° W 19:24:31 10° S
USA 281 3.4 19:14:04 10° NNE 19:20:40 81° WNW 19:27:14 10° SW
NOSS 3-2 (A) 4.2 19:13:25 10° NW 19:20:45 83° SW 19:29:20 10° SE
Cosmos 2297 Rocket 3.2 19:16:50 10° SSE 19:21:07 23° ESE 19:25:25 10° NE
ATLAS 3B R/B 4.3 19:15:02 10° WNW 19:21:22 32° N 19:28:00 10° NE
Cosmos 1867 4.3 19:19:43 10° S 19:24:22 30° ESE 19:29:04 10° ENE
IGS 5A 3.8 19:23:10 10° S 19:27:15 66° WSW 19:31:24 10° NNW
Cosmos 1725 Rocket 3.9 19:22:05 10° N 19:28:17 73° ENE 19:34:28 10° SSE
MINOTAUR 4 R/B 4.0 19:25:50 10° NNE 19:29:17 82° WNW 19:32:41 10° SSW
Resurs 01 Rocket 2.3 19:25:55 14° SE 19:29:20 36° ENE 19:33:24 10° N
JB-3 4.5 19:26:03 10° NNE 19:30:07 82° WNW 19:34:11 10° SSW
CZ-4C R/B 3.7 19:24:42 10° NW 19:30:35 36° NNE 19:36:50 13° E
Cosmos 1371 Rocket 4.3 19:25:34 10° SSW 19:30:50 72° WNW 19:36:06 10° NNE
CENTAUR R/B 3.5 19:23:08 10° NW 19:31:13 73° SW 19:40:13 10° SSE
NOSS 3-2 (C) 4.1 19:24:04 10° NW 19:31:17 77° NE 19:38:47 14° SE
Cosmos 1626 3.6 19:28:41 10° NNW 19:32:01 37° W 19:35:20 10° SSW
Cosmos 1733 3.2 19:29:19 10° S 19:32:59 54° E 19:36:41 10° NNE
Landsat 7 3.8 19:29:26 10° SSE 19:34:08 88° ENE 19:38:54 10° NNW
Cosmos 1271 Rocket 4.5 19:36:59 15° ENE 19:36:59 15° ENE 19:38:23 10° NE
Cosmos 1703 Rocket 4.4 19:32:05 10° NNW 19:36:28 54° W 19:40:46 10° S
Cosmos 2227 Rocket 3.4 19:35:02 16° SE 19:37:02 19° E 19:40:53 10° ENE
CZ-4 R/B 2.8 19:34:40 10° SSW 19:38:16 38° W 19:41:56 10° NNW
Cosmos 2056 Rocket 3.9 19:34:10 10° SW 19:39:15 65° WNW 19:44:21 10° NNE
Iridium 4 Rocket 2.8 19:37:55 10° N 19:42:09 78° E 19:46:18 10° S
Cosmos 192 4.3 19:38:00 10° S 19:42:52 59° ESE 19:47:45 10° NNE
Cosmos 2098 Rocket 3.8 19:37:46 10° S 19:43:13 82° E 19:49:49 10° NNE
Terra 3.7 19:42:45 13° ENE 19:43:55 14° NE 19:46:23 10° NNE
Cosmos 1802 Rocket 4.3 19:38:32 10° NNW 19:44:46 73° W 19:51:03 10° S
Geosat 4.0 19:40:51 16° SE 19:44:56 74° NE 19:49:59 10° NNW
USA 238 DEB 3.9 19:37:45 10° NW 19:44:59 76° NE 19:50:50 19° SE
USA 238 3.9 19:37:51 10° NW 19:45:04 76° NE 19:50:55 19° SE
Resurs 1-3 3.7 19:42:14 10° S 19:46:37 79° WSW 19:51:01 10° NNW
SL-16 R/B 3.2 19:41:32 10° NNW 19:46:40 33° NE 19:49:39 20° E
Cosmos 1674 Rocket 4.4 19:47:32 10° N 19:51:27 31° ENE 19:52:41 27° ESE
Cosmos 1850 Rocket 4.1 19:46:57 10° NNW 19:52:19 82° WSW 19:57:17 12° SSE
Meteor 2-10 3.8 19:49:20 10° S 19:54:20 77° E 19:59:27 10° NNE
Cosmos 1733 Rocket 3.5 19:53:01 22° SE 19:55:07 36° E 19:59:06 10° NNE
Okean-O 2.6 19:52:26 10° SSE 19:56:52 85° WSW 20:01:19 10° NNW
Okean 2 3.6 19:53:46 10° NNW 19:57:49 71° W 20:01:52 10° S
Cosmos 2016 Rocket 4.3 19:52:00 10° NNW 19:58:04 69° W 20:04:08 10° S
NOSS 0 Rocket 4.3 19:53:05 10° NW 19:59:14 66° WSW 20:05:06 11° SSE
CARTOSAT-1 3.9 19:58:45 30° ESE 20:00:26 45° ENE 20:04:34 10° N
SPOT 1/Viking Rocket 3.5 19:55:57 13° SSE 20:00:37 81° ENE 20:05:51 10° NNW
Cosmos 1110 Rocket 4.0 19:56:42 10° S 20:01:46 54° ESE 20:06:50 10° NNE
Cosmos 1378 Rocket 4.0 19:58:34 10° N 20:02:46 41° ENE 20:04:03 33° ESE
SPOT 5 3.9 20:02:23 25° E 20:03:26 27° ENE 20:07:29 10° N
Cosmos 2123 Rocket 4.2 19:57:30 10° SSW 20:03:48 78° W 20:10:11 10° N
Cosmos 2221 Rocket 3.8 19:59:33 10° N 20:03:52 48° ENE 20:05:26 33° SE
Okean O Rocket 3.6 20:01:30 10° SSW 20:05:21 29° W 20:09:13 10° NW
Helios 1B 4.4 20:01:32 10° NNE 20:05:54 82° ESE 20:10:14 10° SSW
BREEZE-M DEB (TANK) 2.8 20:01:44 10° W 20:07:36 65° SSW 20:08:22 45° SE
ISS -3.8 20:04:34 10° W 20:07:56 81° N 20:08:42 50° E
GEOS 3 Rocket 4.2 20:03:12 10° NE 20:08:31 63° NW 20:13:50 10° WSW
CSL-04 Rocket 4.4 20:08:15 10° S 20:13:40 55° W 20:19:08 10° NNW
Cosmos 1447 Rocket 4.4 20:10:38 10° S 20:16:46 64° E 20:22:52 10° NNE
Cosmos 1452 Rocket 3.5 20:11:31 10° SSW 20:16:48 90° WNW 20:22:07 10° NNE
USA 215 3.7 20:10:36 10° ENE 20:17:01 59° NNW 20:23:25 10° W
USA 186 4.1 20:14:54 10° SSW 20:17:25 22° W 20:19:58 10° NW
ADEOS Rocket 4.0 20:15:26 27° E 20:17:54 36° ENE 20:24:12 10° N
Cosmos 1766 3.1 20:17:38 47° SSE 20:18:28 62° E 20:22:15 10° NNE
Cosmos 1331 Rocket 3.8 20:13:37 10° SSW 20:18:43 68° ESE 20:23:52 10° NNE
Cosmos 2237 Rocket 2.4 20:16:03 10° NNW 20:21:41 69° WSW 20:25:10 24° SSE
H-2A R/B 2.9 20:23:55 44° E 20:24:31 47° ENE 20:28:49 10° N
MetOp-B 4.1 20:29:53 38° SE 20:31:55 71° ENE 20:37:16 10° NNW
ATLAS CENTAUR R/B 4.1 20:16:50 10° SW 20:32:46 80° SE 20:40:00 10° ENE
Cosmos 968 Rocket 3.4 20:30:21 10° NNW 20:35:33 83° WSW 20:37:26 40° SSE
Lacrosse 5 rocket 2.4 20:32:01 10° SW 20:34:34 32° SSW 20:34:34 32° SSW
SJ 16-02 2.5 20:32:31 10° N 20:36:14 29° NE 20:36:14 29° NE
Meteor 1-12 Rocket 4.2 20:38:17 37° SSE 20:40:27 60° E 20:46:04 10° NNE
FALCON 9 R/B 4.2 20:24:48 10° WSW 20:41:58 31° SSW 20:45:16 25° SSE
Cosmos 1726 4.0 20:39:49 10° SW 20:42:56 29° WNW 20:46:06 10° N
ERS-1 Rocket 3.2 20:44:49 47° E 20:45:10 48° ENE 20:50:00 10° N
Cosmos 1513 Rocket 4.3 20:39:25 10° N 20:45:32 77° E 20:47:45 42° SSE
Meteor 1-24 Rocket 3.8 20:39:48 10° N 20:45:42 66° ENE 20:47:15 48° SE
Meteor 2-15 4.3 20:43:42 10° N 20:49:53 76° ENE 20:51:48 46° SSE
BREEZE-M DEB (TANK) 3.0 20:43:23 10° WNW 20:49:56 72° SSW 20:50:42 58° SE
Landsat 5 4.1 20:46:43 10° N 20:50:27 51° WNW 20:53:40 14° SW
Ariane Rocket 2.9 20:49:52 57° SSE 20:50:55 83° ENE 20:56:01 10° NNW
Meteor 2-8 Rocket 4.4 20:45:31 10° N 20:51:40 72° ENE 20:53:21 49° SE
Spot 2 4.3 20:51:12 62° ESE 20:51:41 66° ENE 20:56:31 10° N
Cosmos 482 Debris 4.3 20:48:02 10° WNW 20:52:59 78° W 20:52:59 78° W
Cosmos 1943 4.2 20:48:40 10° NNW 20:53:42 32° NE 20:54:31 31° ENE
Meteor 2-15 Rocket 4.4 20:49:38 10° N 20:55:48 66° ENE 20:57:02 54° SE
Spot 2 Rocket 3.4 21:01:35 64° E 21:01:46 65° ENE 21:06:50 10° N
Cosmos 1302 Rocket 3.8 21:02:14 61° S 21:03:06 78° ESE 21:08:26 10° NNE
Cosmos 2297 Rocket 2.3 20:58:58 10° SW 21:04:36 73° WNW 21:10:18 10° NNE
Resurs 01 Rocket 3.3 21:03:26 18° SW 21:05:52 30° W 21:09:47 10° NNW
Cosmos 2034 Rocket 3.9 21:00:53 10° N 21:07:04 66° ENE 21:07:51 60° ESE
Cosmos 1867 3.9 21:02:14 10° SW 21:07:39 64° NW 21:13:06 10° NE
Cosmos 1271 Rocket 3.7 21:11:48 45° NW 21:11:48 45° NW 21:15:03 10° N
Cosmos 2219 3.4 21:13:55 56° ENE 21:13:55 56° ENE 21:18:29 10° NNE
SPOT 3 Rocket 3.4 21:12:40 76° S 21:13:06 87° WSW 21:18:22 10° NNW
Meteor 2-5 Rocket 3.8 21:07:18 10° NNW 21:13:07 76° W 21:14:30 53° S
ATLAS 3B R/B 3.9 21:07:15 10° NW 21:14:06 38° NNE 21:17:41 25° ENE
Cosmos 1470 4.0 21:15:43 36° N 21:15:43 36° N 21:18:10 10° N
deb Chang Zheng 4 4.4 21:16:08 39° N 21:16:08 39° N 21:18:40 10° NNW
CZ-4C R/B 2.9 21:13:09 10° NW 21:20:05 79° NE 21:21:59 56° ESE
Cosmos 2227 Rocket 2.1 21:14:41 10° SSW 21:20:22 85° WNW 21:26:05 10° NNE
Terra 2.0 21:21:29 63° N 21:21:29 63° N 21:25:33 10° NNW
Cosmos 1503 Rocket 4.3 21:22:15 10° NNW 21:26:52 56° NNE 21:26:52 56° NNE
SL-16 R/B 2.4 21:25:32 10° NW 21:31:09 60° WSW 21:31:32 59° SW
Cosmos 1486 Rocket 4.2 21:33:22 10° NNW 21:38:14 71° WNW 21:38:14 71° WNW
SPOT 5 3.6 21:41:34 46° W 21:41:34 46° W 21:45:56 10° NNW
ISS -0.5 21:41:23 10° W 21:41:38 12° W 21:41:38 12° W
H-2A R/B 4.2 21:50:24 10° NNE 21:51:45 20° NNE 21:51:45 20° NNE
Cosmos 2279 Rocket 4.5 21:51:12 10° N 21:56:22 49° NE 21:56:22 49° NE
USA 215 3.7 21:57:51 44° ENE 21:59:36 57° N 22:05:59 10° WNW
ADEOS Rocket 3.5 22:02:21 55° SW 22:03:04 58° W 22:10:01 10° NNW
Cosmos 2263 Rocket 3.8 22:13:19 24° NE 22:13:19 24° NE 22:15:24 10° NNE
SJ 16-02 3.3 22:10:53 10° NW 22:13:07 26° NW 22:13:07 26° NW
ATLAS 2AS CENTAUR R/B 4.4 22:29:01 21° ENE 22:29:01 21° ENE 22:31:21 10° NE
Cosmos 1634 Rocket 4.4 22:27:40 10° NNW 22:33:09 58° WNW 22:33:09 58° WNW
Cosmos 1943 4.2 22:32:34 10° NW 22:36:19 41° NW 22:36:19 41° NW
NOSS 3-4 (A) 4.1 22:42:49 50° NNW 22:42:49 50° NNW 22:48:56 10° NE
NOSS 3-4 (C) 4.1 22:43:07 50° NNW 22:43:07 50° NNW 22:49:01 10° NE
ATLAS CENTAUR R/B 3.8 22:37:00 10° W 22:48:15 57° NNW 22:49:44 47° NNE
Terra 4.3 23:00:13 15° WNW 23:00:13 15° WNW 23:01:55 10° NW
Cosmos 2082 Rocket 4.5 22:57:36 10° N 23:01:01 16° NNE 23:02:28 15° NE
Cosmos 2227 Rocket 4.3 23:00:49 10° W 23:05:16 23° NW 23:09:45 10° NNE
ATLAS 3B R/B 3.1 22:58:17 10° NW 23:04:56 70° NNW 23:04:56 70° NNW
CZ-4C R/B 4.0 23:01:55 10° NW 23:07:09 34° W 23:07:09 34° W
Cosmos 1833 Rocket 4.3 23:09:03 10° NNW 23:12:54 28° NNE 23:12:54 28° NNE
Cosmos 2344 3.9 23:10:11 10° NW 23:18:40 84° SW 23:18:50 84° SSW
USA 215 4.2 23:45:10 39° WNW 23:45:10 39° WNW 23:49:01 10° WNW
NOSS 3-1 (C) 4.4 23:43:01 10° NW 23:48:11 54° NW 23:48:11 54° NW
Cosmos 2263 Rocket 3.9 23:54:56 27° NNW 23:54:56 27° NNW 23:59:04 10° NNE
